Olathe New Century, KS

11:13 AM CDT on March 26, 2017 (GMT -0500)
New Century Aircenter

Weather History for KIXD - January, 2014

Change the Weather History Date:

Thursday, January 16, 2014

  Actual Average Record
Temperature  
Mean Temperature 36 °F -  
Max Temperature 48 °F 37 °F 64 °F (2012)
Min Temperature 23 °F 19 °F 0 °F (2007)
Degree Days  
Heating Degree Days 29    
Moisture  
Dew Point 19 °F    
Average Humidity 49    
Maximum Humidity 79    
Minimum Humidity 29    
Precipitation  
Precipitation 0.00 in - - ()
Sea Level Pressure  
Sea Level Pressure 29.90 in    
Wind  
Wind Speed 15 mph (WNW)    
Max Wind Speed 29 mph    
Max Gust Speed 51 mph    
Visibility 9 miles    
Events Snow    
Averages and records for this station are not official NWS values.
T = Trace of Precipitation, MM = Missing Value Source: NWS Daily Summary

Daily Weather History Graph

Daily Weather History Graph

Search for Another Location

Airport or City:

Trip Planner

Search our weather history database for the weather conditions in past years. The results will help you decide how hot, cold, wet, or windy it might be!

Date:

Astronomy

Jan. 16, 2014 Rise Set
Actual Time 7:36 AM CST 5:23 PM CST
Civil Twilight 7:06 AM CST 5:52 PM CST
Nautical Twilight 6:34 AM CST 6:24 PM CST
Astronomical Twilight 6:02 AM CST 6:56 PM CST
Moon 6:14 PM CST (1/16) 7:31 AM CST (1/16)
Length of Visible Light 10h 45m
Length of Day
9h 46m
Full, 100% of the Moon is Illuminated
Jan 16
Full
Jan 23
Last Quarter
Jan 30
New
Feb 6
First Quarter
Feb 14
Full

Hourly Weather History & Observations

Time (CST) Temp. Windchill Dew Point Humidity Pressure Visibility Wind Dir Wind Speed Gust Speed Precip Events Conditions
12:53 AM 35.1 °F 31.0 °F 23.0 °F 61% 29.83 in 9.0 mi South 4.6 mph - 0.00 in   Overcast
1:53 AM 37.0 °F 31.6 °F 24.1 °F 59% 29.83 in 10.0 mi SW 6.9 mph - N/A   Overcast
2:53 AM 35.1 °F 30.1 °F 24.1 °F 64% 29.84 in 10.0 mi WSW 5.8 mph - N/A   Clear
3:53 AM 36.0 °F 30.3 °F 24.1 °F 62% 29.82 in 10.0 mi West 6.9 mph - N/A   Mostly Cloudy
4:53 AM 34.0 °F 28.8 °F 24.1 °F 67% 29.80 in 10.0 mi WSW 5.8 mph - N/A   Clear
5:53 AM 36.0 °F 29.6 °F 25.0 °F 64% 29.82 in 10.0 mi West 8.1 mph - N/A   Clear
6:53 AM 39.0 °F 31.0 °F 26.1 °F 60% 29.84 in 10.0 mi West 13.8 mph - N/A   Mostly Cloudy
7:53 AM 41.0 °F 33.1 °F 25.0 °F 53% 29.85 in 10.0 mi WNW 15.0 mph - N/A   Clear
8:53 AM 42.1 °F 32.8 °F 23.0 °F 47% 29.88 in 10.0 mi WNW 21.9 mph 29.9 mph N/A   Clear
9:53 AM 45.0 °F 35.6 °F 19.0 °F 36% 29.89 in 10.0 mi NW 27.6 mph 41.4 mph N/A   Partly Cloudy
10:53 AM 46.0 °F 37.0 °F 18.0 °F 33% 29.90 in 10.0 mi NW 27.6 mph 36.8 mph N/A   Partly Cloudy
11:53 AM 46.9 °F - 18.0 °F 32% 29.87 in 10.0 mi WNW 27.6 mph 44.9 mph N/A   Mostly Cloudy
12:53 PM 46.9 °F - 17.1 °F 30% 29.86 in 10.0 mi WNW 27.6 mph 36.8 mph N/A   Mostly Cloudy
1:53 PM 48.0 °F - 18.0 °F 30% 29.85 in 10.0 mi WNW 25.3 mph 40.3 mph N/A   Mostly Cloudy
2:53 PM 48.0 °F - 17.1 °F 29% 29.85 in 10.0 mi NW 23.0 mph 28.8 mph N/A   Mostly Cloudy
3:53 PM 44.1 °F 34.8 °F 17.1 °F 34% 29.88 in 10.0 mi NW 25.3 mph 36.8 mph N/A   Overcast
4:53 PM 42.1 °F 31.7 °F 15.1 °F 34% 29.90 in 10.0 mi WNW 27.6 mph 36.8 mph N/A   Overcast
5:53 PM 39.0 °F 29.0 °F 16.0 °F 39% 29.91 in 10.0 mi WNW 20.7 mph 33.4 mph N/A   Partly Cloudy
6:53 PM 39.0 °F 27.4 °F 16.0 °F 39% 29.94 in 10.0 mi NW 28.8 mph 50.6 mph N/A   Overcast
7:32 PM 30.9 °F 17.2 °F 23.0 °F 72% 29.98 in 1.8 mi NW 25.3 mph 41.4 mph 0.00 in Snow Light Snow
7:43 PM 30.0 °F 18.3 °F 24.1 °F 79% 29.98 in 3.0 mi NW 17.3 mph - 0.00 in Snow Light Snow
7:53 PM 30.9 °F 19.1 °F 21.0 °F 67% 30.01 in 10.0 mi NW 18.4 mph 29.9 mph 0.00 in   Mostly Cloudy
8:53 PM 28.9 °F 14.5 °F 7.0 °F 40% 30.02 in 10.0 mi NW 25.3 mph 41.4 mph N/A   Clear
9:53 PM 27.0 °F 14.7 °F 10.0 °F 49% 30.04 in 10.0 mi NNW 16.1 mph 32.2 mph N/A   Mostly Cloudy
10:53 PM 24.1 °F 10.6 °F 9.0 °F 53% 30.07 in 10.0 mi NNW 17.3 mph 28.8 mph N/A   Overcast
11:53 PM 23.0 °F 6.3 °F 8.1 °F 53% 30.07 in 10.0 mi NNW 26.5 mph 34.5 mph N/A   Overcast